Location: Leiter
(44.7178°N, 106.2687°W)
Time: 16:40:20
(UTC+00:00)

ESTCUBE 1 - Pass Details

Date: 27 June 2022
Orbit: 645 x 657 km, 97.9° (Epoch: 19 August)

Event Time Altitude Azimuth Distance (km) Brightness Sun altitude
Exits shadow 06:42:53 - 251° (WSW) 2,113 ? -21.7°
Reaches altitude 10° 06:43:28 10° 258° (WSW) 2,045 ? -21.7°
Maximum altitude 06:44:34 11° 272° (W) 1,995 ? -21.7°
Drops below altitude 10° 06:45:39 10° 287° (WNW) 2,050 ? -21.8°
Sets 06:49:48 0° 325° (NW) 2,970 ? -21.8°
